[[{"header":{"parameterUnit":"m.s-1","parameterCategory":1,"la1":30.2991,"la2":30.254,"lo1":-89.0895,"lo2":-89.0444,"dy":0.0017,"dx":0.0017,"nx":28,"ny":28,"refTime":"2023-07-23T03:00:00:Z","depth":0,"parameterNumber":2,"parameterNumberName":"U-component_of_WINDS"},"data":[0,0,0,0,0,0,0,0,0,0,0,0,0,0,0,0,0,0,0,0,0,0,0,0,0,0,0,0,0,0,0,0,0,0,0,0,0,0,0,0,0,0,0,0,0,0,0,0,0,0,0,0,0,0,0,0,0,0,2.365,2.365,0,2.3737,2.3738,2.3739,2.3725,2.3724,2.3722,2.3721,2.3809,2.3812,2.3816,0,0,0,0,0,0,0,0,0,0,0,0,0,2.347,2.3474,2.3649,2.3651,2.3652,2.3736,2.3738,2.3739,2.3726,2.3724,2.3722,2.372,2.3807,2.3812,2.3816,0,0,0,0,0,0,0,0,0,0,0,0,0,2.3552,2.3475,2.3649,2.3655,2.3657,2.3736,2.3738,2.3739,2.3726,2.3724,2.3721,2.3719,2.3806,2.3811,2.3817,2.3896,0,0,2.3834,2.3836,0,0,0,0,0,0,0,0,2.3547,2.3558,2.3653,2.3655,2.3657,2.3718,2.3707,2.3792,2.3726,2.37,2.3721,2.3718,2.378,2.3788,2.3809,2.39,2.3903,2.3834,2.3838,2.384,2.3842,0,0,0,0,0,0,0,2.3541,2.3554,2.3684,2.3655,2.3657,2.3653,2.3662,2.3723,2.3751,2.3702,2.3701,2.3712,2.3781,2.3804,2.3811,2.3905,2.3834,2.3839,2.3843,2.3845,2.4065,2.4067,0,0,0,0,0,0,2.3534,2.355,2.3681,2.3686,2.3595,2.3658,2.3668,2.37,2.375,2.3756,2.3713,2.3711,2.3795,2.3804,2.3814,2.391,2.384,2.3845,2.3849,2.4063,2.4066,2.4068,0,0,0,0,0,0,2.3531,2.3546,2.3678,2.3618,2.3634,2.3664,2.37,2.3703,2.3726,2.3759,2.3764,2.3732,2.3794,2.3806,2.3876,2.3913,2.3848,2.3853,2.406,2.4064,2.4067,2.4102,0,0,0,0,0,0,2.3525,2.3545,2.3575,2.3619,2.3638,2.3738,2.3702,2.3707,2.3736,2.3733,2.3778,2.3783,2.3793,2.3867,2.3881,2.3919,2.3857,2.4056,2.4061,2.4066,2.4097,2.4106,2.4114,0,0,0,0,0,2.3519,2.3581,2.3577,2.3593,2.3677,2.374,2.3751,2.3762,2.3739,2.377,2.3791,2.3781,2.3906,2.3875,2.389,2.393,2.4054,2.406,2.4065,2.4094,2.4105,2.4114,0,0,0,0,0,0,2.354,2.3587,2.3583,2.3661,2.3697,2.3738,2.3777,2.3773,2.3816,2.3811,2.3822,2.3832,2.3903,2.3923,2.3887,2.4009,2.3977,2.3986,2.3993,2.4004,2.4012,2.4006,2.3862,0,0,0,0,0,2.3554,2.3603,2.3641,2.3706,2.3724,2.3748,2.3776,2.3781,2.3819,2.3834,2.386,2.3896,2.3944,2.3975,2.402,2.41,2.411,2.4136,2.4144,2.415,2.4158,2.4202,2.4214,2.4087,2.4087,2.4087,0,0,2.3583,2.3615,2.3645,2.3711,2.374,2.3789,2.3761,2.3814,2.3851,2.3842,2.3909,2.393,2.3971,2.4047,2.4081,2.4066,2.4195,2.4157,2.4162,2.4167,2.4209,2.4221,2.4232,2.4091,2.409,2.4089,0,0,2.3662,2.369,2.3748,2.3778,2.3822,2.3837,2.3851,2.3893,2.3907,2.3975,2.3969,2.4013,2.4094,2.4124,2.415,2.424,2.4233,2.4255,2.4298,2.4341,2.4351,2.436,2.4393,2.4404,2.4262,2.4262,2.4263,0,2.3692,2.3767,2.3778,2.3833,2.3863,2.3857,2.3916,2.3943,2.4,2.402,2.4002,2.4105,2.4132,2.4215,2.4237,2.4258,2.4274,2.425,2.4349,2.4358,2.4366,2.4398,2.441,2.4265,2.4265,2.4264,2.4264,0,2.3803,2.3855,2.3896,2.3952,2.3986,2.4042,2.4062,2.4095,2.4097,2.4114,2.4184,2.4217,2.4269,2.4289,2.4291,2.4372,2.4361,2.4346,2.4314,2.4381,2.441,2.4422,2.4268,2.4267,2.4267,2.4266,0,0,2.3897,2.3958,2.3973,2.3999,2.4047,2.4088,2.4144,2.4195,2.4224,2.4263,2.431,2.438,2.4366,2.4395,2.4401,2.4439,2.4509,2.4419,2.442,2.4435,2.4601,2.4612,2.4626,2.4505,2.4507,2.4509,2.4598,0,2.398,2.408,2.4092,2.4181,2.423,2.4225,2.4274,2.4309,2.4326,2.437,2.4389,2.4438,2.4416,2.4434,2.4471,2.4493,2.4543,2.4487,2.4549,2.4551,2.4539,2.4642,2.4654,2.4736,2.4609,2.4611,2.4613,0,2.4091,2.4134,2.4228,2.4271,2.4291,2.4335,2.4384,2.4426,2.4465,2.4475,2.4509,2.451,2.4567,2.4533,2.4613,2.4575,2.4601,2.4615,2.4619,2.4625,2.4586,2.4651,2.4762,2.4775,2.4631,2.4629,2.4628,0,2.415,2.4232,2.4299,2.4321,2.4372,2.4403,2.4426,2.4463,2.4494,2.4536,2.4556,2.4604,2.4631,2.4668,2.4682,2.4656,2.4762,2.4728,2.4772,2.4772,2.4795,2.4793,2.4912,2.4811,2.4811,2.481,2.481,0,2.4242,2.43,2.4327,2.4368,2.4433,2.4446,2.4509,2.453,2.4564,2.4609,2.4607,2.465,2.4666,2.4711,2.4722,2.4787,2.4798,2.4808,2.4811,2.4809,2.4808,2.4826,2.4821,2.4814,2.4813,2.4812,2.4812,0,2.432,2.434,2.4413,2.4456,2.4468,2.4514,2.455,2.459,2.4607,2.4664,2.4678,2.4705,2.4758,2.4776,2.4839,2.4847,2.4923,2.492,2.491,2.491,2.4953,2.4949,2.5088,2.5107,2.4994,2.4995,2.4995,0,2.4378,2.4423,2.447,2.4501,2.4525,2.4574,2.4606,2.462,2.4653,2.4701,2.4735,2.4788,2.4831,2.4915,2.494,2.4989,2.4988,2.5033,2.4995,2.4992,2.4989,2.4987,2.4991,2.504,2.5042,2.5043,2.5043,0,2.4478,2.4486,2.4532,2.4582,2.462,2.466,2.4698,2.4723,2.4743,2.478,2.4834,2.4868,2.4933,2.4985,2.5035,2.5058,2.5054,2.5055,2.5068,2.5067,2.5059,2.5064,2.493,2.5052,2.5051,2.505,2.505,2.505,2.4548,2.4588,2.4628,2.468,2.471,2.4746,2.4786,2.4809,2.4855,2.491,2.4915,2.4974,2.5012,2.5079,2.5104,2.515,2.5138,2.5156,2.5161,2.5165,2.5169,2.5052,2.5159,2.5159,2.5159,2.5159,2.5159,0,2.4649,2.4675,2.4722,2.4777,2.4817,2.4811,2.4853,2.4887,2.4939,2.4976,2.5018,2.5081,2.5132,2.5161,2.5212,2.5243,2.5243,2.5256,2.5254,2.5259,2.5177,2.5161,2.5255,2.5255,2.5255,2.5255,2.5255,2.5255,2.4706,2.4774,2.4786,2.4869,2.4894,2.4952,2.4977,2.501,2.504,2.511,2.5153,2.5172,2.5206,2.5259,2.5305,2.5313,2.5332,2.5346,2.5352,2.5275,2.5265,2.5256,2.5241,2.535,2.535,2.5431,2.5432,2.5432]},{"header":{"parameterUnit":"m.s-1","parameterCategory":1,"la1":30.2991,"la2":30.254,"lo1":-89.0895,"lo2":-89.0444,"dy":0.0017,"dx":0.0017,"nx":28,"ny":28,"refTime":"2023-07-23T03:00:00:Z","depth":0,"parameterNumber":3,"parameterNumberName":"V-component_of_WINDS"},"data":[0,0,0,0,0,0,0,0,0,0,0,0,0,0,0,0,0,0,0,0,0,0,0,0,0,0,0,0,0,0,0,0,0,0,0,0,0,0,0,0,0,0,0,0,0,0,0,0,0,0,0,0,0,0,0,0,0,0,-0.0383,-0.0382,0,-0.0315,-0.0314,-0.0314,-0.0271,-0.0271,-0.0271,-0.0271,-0.0198,-0.0196,-0.0194,0,0,0,0,0,0,0,0,0,0,0,0,0,-0.0471,-0.047,-0.0383,-0.0382,-0.0381,-0.0315,-0.0314,-0.0314,-0.0271,-0.0271,-0.0271,-0.027,-0.0198,-0.0196,-0.0194,0,0,0,0,0,0,0,0,0,0,0,0,0,-0.0421,-0.0469,-0.0383,-0.0352,-0.0349,-0.0316,-0.0314,-0.0313,-0.0271,-0.0271,-0.0271,-0.027,-0.0199,-0.0196,-0.0194,-0.0185,0,0,-0.0186,-0.0185,0,0,0,0,0,0,0,0,-0.0424,-0.0418,-0.0358,-0.0354,-0.0351,-0.0301,-0.0319,-0.027,-0.0271,-0.0301,-0.0271,-0.027,-0.0232,-0.0227,-0.0215,-0.0181,-0.0178,-0.0186,-0.0184,-0.0183,-0.0182,0,0,0,0,0,0,0,-0.0427,-0.042,-0.0356,-0.0357,-0.0352,-0.034,-0.0333,-0.0309,-0.0269,-0.0298,-0.0295,-0.0288,-0.023,-0.0217,-0.0213,-0.0177,-0.0186,-0.0183,-0.0182,-0.0181,-0.0131,-0.0131,0,0,0,0,0,0,-0.0436,-0.0424,-0.0358,-0.0354,-0.0387,-0.0339,-0.0331,-0.0317,-0.0269,-0.0262,-0.0288,-0.0286,-0.0222,-0.0216,-0.021,-0.0195,-0.0183,-0.0181,-0.0179,-0.013,-0.0131,-0.0131,0,0,0,0,0,0,-0.0438,-0.0431,-0.0361,-0.0388,-0.0378,-0.0338,-0.0323,-0.0316,-0.0304,-0.0262,-0.0254,-0.0283,-0.0221,-0.0214,-0.0191,-0.0192,-0.0179,-0.0177,-0.013,-0.0131,-0.0131,-0.0167,0,0,0,0,0,0,-0.0441,-0.0432,-0.0429,-0.0388,-0.0377,-0.0345,-0.0323,-0.0315,-0.03,-0.0296,-0.0255,-0.0247,-0.0221,-0.0195,-0.0189,-0.0189,-0.0175,-0.013,-0.013,-0.0131,-0.0165,-0.0168,-0.0171,0,0,0,0,0,-0.0444,-0.0441,-0.0429,-0.0422,-0.0373,-0.0345,-0.0338,-0.0309,-0.03,-0.0296,-0.0269,-0.0249,-0.0193,-0.0193,-0.0185,-0.0185,-0.013,-0.013,-0.0131,-0.0164,-0.0168,-0.0171,0,0,0,0,0,0,-0.0483,-0.0436,-0.0422,-0.0406,-0.038,-0.0338,-0.0332,-0.0314,-0.0289,-0.0287,-0.025,-0.024,-0.0221,-0.02,-0.0201,-0.0172,-0.0159,-0.0158,-0.0187,-0.019,-0.0193,-0.0198,-0.0173,0,0,0,0,0,-0.049,-0.0472,-0.0431,-0.0421,-0.0409,-0.0373,-0.036,-0.0339,-0.031,-0.0299,-0.027,-0.0242,-0.0217,-0.0203,-0.0178,-0.0162,-0.0151,-0.0157,-0.016,-0.0162,-0.0162,-0.0151,-0.0152,-0.0133,-0.0133,-0.0133,0,0,-0.0503,-0.0475,-0.0466,-0.0428,-0.0406,-0.0387,-0.0364,-0.0346,-0.0331,-0.0295,-0.0273,-0.025,-0.0216,-0.0197,-0.0186,-0.0179,-0.0165,-0.0163,-0.0165,-0.0163,-0.0151,-0.0153,-0.0155,-0.0133,-0.0133,-0.0133,0,0,-0.0518,-0.0496,-0.0485,-0.0463,-0.0429,-0.0405,-0.0402,-0.0363,-0.0347,-0.0324,-0.0297,-0.0278,-0.0237,-0.0214,-0.0197,-0.0202,-0.0182,-0.0194,-0.0209,-0.0198,-0.02,-0.0201,-0.0202,-0.0203,-0.0194,-0.0194,-0.0194,0,-0.0539,-0.0512,-0.0481,-0.0464,-0.0447,-0.0415,-0.0402,-0.0382,-0.0342,-0.033,-0.0322,-0.027,-0.0245,-0.0219,-0.022,-0.0207,-0.0202,-0.0199,-0.0202,-0.0203,-0.0204,-0.0205,-0.0205,-0.0196,-0.0196,-0.0196,-0.0195,0,-0.0538,-0.052,-0.0514,-0.0477,-0.046,-0.0445,-0.0411,-0.0396,-0.0377,-0.0353,-0.0329,-0.0297,-0.0265,-0.0257,-0.0238,-0.0228,-0.0224,-0.021,-0.0196,-0.0208,-0.0208,-0.0208,-0.0199,-0.0198,-0.0197,-0.0197,0,0,-0.0577,-0.0523,-0.0522,-0.0504,-0.0464,-0.0448,-0.0431,-0.0401,-0.0389,-0.0362,-0.0346,-0.0312,-0.0298,-0.0278,-0.0255,-0.0246,-0.0251,-0.0232,-0.0231,-0.0237,-0.0237,-0.0248,-0.0249,-0.0237,-0.0237,-0.0237,-0.024,0,-0.0587,-0.0556,-0.0527,-0.0507,-0.0488,-0.0456,-0.0441,-0.0414,-0.0391,-0.037,-0.0344,-0.032,-0.0304,-0.0292,-0.0281,-0.0253,-0.025,-0.0252,-0.0221,-0.022,-0.0231,-0.0249,-0.0261,-0.0266,-0.024,-0.024,-0.024,0,-0.0594,-0.0569,-0.0547,-0.0508,-0.0499,-0.0486,-0.0456,-0.0437,-0.0405,-0.0388,-0.0366,-0.0342,-0.032,-0.0308,-0.0277,-0.0279,-0.0264,-0.0248,-0.0247,-0.0243,-0.0231,-0.0246,-0.0266,-0.0267,-0.0239,-0.0239,-0.0239,0,-0.0624,-0.0585,-0.0567,-0.0552,-0.0506,-0.0498,-0.0478,-0.0446,-0.0429,-0.0402,-0.039,-0.036,-0.0344,-0.032,-0.0288,-0.0282,-0.026,-0.0245,-0.0245,-0.0246,-0.0242,-0.0243,-0.0261,-0.0233,-0.0233,-0.0233,-0.0233,0,-0.0638,-0.0626,-0.058,-0.0568,-0.0553,-0.0518,-0.0503,-0.048,-0.0452,-0.0434,-0.0404,-0.0387,-0.0346,-0.0324,-0.0298,-0.0276,-0.0269,-0.0254,-0.0247,-0.0257,-0.0259,-0.0247,-0.0245,-0.0233,-0.0233,-0.0233,-0.0233,0,-0.067,-0.0639,-0.0616,-0.0574,-0.0563,-0.0554,-0.0517,-0.0504,-0.0478,-0.0456,-0.0449,-0.0409,-0.0381,-0.0347,-0.0308,-0.029,-0.0271,-0.0261,-0.0282,-0.0279,-0.028,-0.028,-0.0291,-0.029,-0.0263,-0.0263,-0.0263,0,-0.0681,-0.0671,-0.0628,-0.0614,-0.0596,-0.0574,-0.0557,-0.0522,-0.0506,-0.0467,-0.0458,-0.0429,-0.0403,-0.0361,-0.0327,-0.0297,-0.0285,-0.0291,-0.0281,-0.029,-0.0285,-0.0286,-0.0284,-0.0294,-0.0294,-0.0295,-0.0295,0,-0.0704,-0.0689,-0.0666,-0.0638,-0.0618,-0.0594,-0.0568,-0.0558,-0.0518,-0.05,-0.0472,-0.0452,-0.0413,-0.0383,-0.0348,-0.0326,-0.0303,-0.0299,-0.0297,-0.0307,-0.032,-0.0312,-0.029,-0.0299,-0.0298,-0.0298,-0.0298,-0.0298,-0.0725,-0.0714,-0.0682,-0.0658,-0.0635,-0.0611,-0.0596,-0.0569,-0.0546,-0.0512,-0.0492,-0.0464,-0.043,-0.0381,-0.036,-0.0336,-0.0328,-0.0326,-0.0325,-0.0325,-0.0328,-0.0323,-0.033,-0.033,-0.033,-0.0329,-0.0329,0,-0.0746,-0.0724,-0.0702,-0.0667,-0.0647,-0.0628,-0.0598,-0.0582,-0.0559,-0.053,-0.0506,-0.0473,-0.0443,-0.0407,-0.0375,-0.0363,-0.0352,-0.0356,-0.0357,-0.0352,-0.0337,-0.0342,-0.0366,-0.0366,-0.0366,-0.0366,-0.0366,-0.0366,-0.0755,-0.0736,-0.0716,-0.0684,-0.0661,-0.0635,-0.0619,-0.0597,-0.0573,-0.0538,-0.0514,-0.0491,-0.0458,-0.0423,-0.0395,-0.0385,-0.0374,-0.0382,-0.0368,-0.0356,-0.0353,-0.035,-0.0354,-0.038,-0.038,-0.0384,-0.0384,-0.0385]}]]